[[{"header":{"parameterUnit":"m.s-1","parameterCategory":2,"la1":30.2991,"la2":30.254,"lo1":-89.0895,"lo2":-89.0444,"dy":0.0017,"dx":0.0017,"nx":28,"ny":28,"refTime":"2024-10-09T09:00:00:Z","depth":"0","parameterNumber":2,"parameterNumberName":"U-component_of_CURRENTS"},"data":[0,0,0,0,0,0,0,0,0,0,0,0,0,0,0,0,0,0,0,0,0,0,0,0,0,0,0,0,0,0,0,0,0,0,0,0,0,0,0,0,0,0,0,0,0,0,0,0,0,0,0,0,0,0,0,0,0,0,-0.2369,-0.2369,0,-0.2379,-0.2379,-0.2379,-0.2342,-0.2341,-0.234,-0.2339,-0.2301,-0.2301,-0.2301,0,0,0,0,0,0,0,0,0,0,0,0,0,-0.2322,-0.2323,-0.2369,-0.2369,-0.237,-0.2379,-0.2379,-0.2379,-0.2342,-0.2341,-0.234,-0.2339,-0.2301,-0.2301,-0.2301,0,0,0,0,0,0,0,0,0,0,0,0,0,-0.2336,-0.2323,-0.2369,-0.2354,-0.2353,-0.2379,-0.2379,-0.2379,-0.2342,-0.2341,-0.234,-0.2338,-0.2301,-0.2301,-0.2301,-0.2327,0,0,-0.23,-0.23,0,0,0,0,0,0,0,0,-0.2335,-0.2338,-0.2356,-0.2355,-0.2354,-0.2359,-0.2348,-0.236,-0.2343,-0.2344,-0.2339,-0.2338,-0.2319,-0.2317,-0.232,-0.2325,-0.2323,-0.23,-0.23,-0.23,-0.23,0,0,0,0,0,0,0,-0.2334,-0.2337,-0.2371,-0.2356,-0.2355,-0.2348,-0.2348,-0.235,-0.2337,-0.2344,-0.2342,-0.2347,-0.2317,-0.232,-0.2318,-0.2323,-0.23,-0.23,-0.23,-0.23,-0.2333,-0.2334,0,0,0,0,0,0,-0.2339,-0.2336,-0.2371,-0.2371,-0.2343,-0.235,-0.235,-0.2357,-0.2338,-0.2334,-0.2348,-0.2345,-0.2321,-0.2319,-0.2317,-0.2336,-0.23,-0.23,-0.23,-0.2332,-0.2333,-0.2334,0,0,0,0,0,0,-0.2338,-0.2342,-0.237,-0.2355,-0.2358,-0.2352,-0.2361,-0.2358,-0.2356,-0.2341,-0.2336,-0.2347,-0.232,-0.2317,-0.2319,-0.2334,-0.23,-0.2299,-0.2331,-0.2332,-0.2334,-0.2381,0,0,0,0,0,0,-0.2336,-0.2342,-0.2345,-0.2356,-0.236,-0.2388,-0.2362,-0.236,-0.2363,-0.2359,-0.234,-0.2335,-0.2319,-0.232,-0.2319,-0.2333,-0.2299,-0.2329,-0.2331,-0.2333,-0.2378,-0.2384,-0.2388,0,0,0,0,0,-0.2335,-0.2348,-0.2345,-0.2349,-0.2366,-0.2389,-0.2391,-0.238,-0.2364,-0.2371,-0.2356,-0.2335,-0.2331,-0.2321,-0.2319,-0.2334,-0.2328,-0.2331,-0.2333,-0.2375,-0.2382,-0.2388,0,0,0,0,0,0,-0.2328,-0.2346,-0.2343,-0.236,-0.2375,-0.2384,-0.2388,-0.2385,-0.238,-0.2371,-0.235,-0.2345,-0.2354,-0.2341,-0.233,-0.235,-0.2326,-0.2328,-0.2359,-0.2365,-0.2371,-0.2372,-0.2299,0,0,0,0,0,-0.2331,-0.2341,-0.2361,-0.2372,-0.2382,-0.2386,-0.2392,-0.239,-0.239,-0.2386,-0.2375,-0.2364,-0.2366,-0.2362,-0.236,-0.2373,-0.2357,-0.2382,-0.2387,-0.2392,-0.2392,-0.2385,-0.239,-0.2342,-0.2342,-0.2342,0,0,-0.2329,-0.2341,-0.2345,-0.2371,-0.2377,-0.2401,-0.2385,-0.24,-0.2415,-0.2384,-0.2393,-0.2385,-0.2375,-0.2387,-0.2389,-0.2375,-0.2399,-0.2395,-0.2398,-0.2397,-0.2388,-0.2393,-0.2397,-0.2343,-0.2343,-0.2343,0,0,-0.2337,-0.2345,-0.2358,-0.2378,-0.2398,-0.2408,-0.2415,-0.243,-0.243,-0.2446,-0.2427,-0.2429,-0.2429,-0.2426,-0.2425,-0.2461,-0.2431,-0.2459,-0.2484,-0.2478,-0.2481,-0.2484,-0.2477,-0.2479,-0.2459,-0.2459,-0.2459,0,-0.2332,-0.2353,-0.2366,-0.2391,-0.2406,-0.2414,-0.2438,-0.2451,-0.2462,-0.2466,-0.2452,-0.2458,-0.2449,-0.2466,-0.2477,-0.2474,-0.246,-0.2459,-0.2484,-0.2486,-0.2489,-0.248,-0.2482,-0.2462,-0.2461,-0.2461,-0.2461,0,-0.2354,-0.2373,-0.2386,-0.2417,-0.244,-0.246,-0.2487,-0.2502,-0.2502,-0.251,-0.2524,-0.2516,-0.2514,-0.2519,-0.2508,-0.2525,-0.2508,-0.2493,-0.2465,-0.2496,-0.2486,-0.2487,-0.2465,-0.2464,-0.2464,-0.2463,0,0,-0.233,-0.2388,-0.2389,-0.2407,-0.2453,-0.2471,-0.2509,-0.2539,-0.2554,-0.2564,-0.2577,-0.2588,-0.2575,-0.2573,-0.2561,-0.2559,-0.2568,-0.2533,-0.2531,-0.2522,-0.255,-0.2501,-0.2496,-0.2552,-0.2553,-0.2553,-0.2539,0,-0.2335,-0.2379,-0.2412,-0.245,-0.2473,-0.2506,-0.2539,-0.2569,-0.2585,-0.2603,-0.2604,-0.2611,-0.2599,-0.2593,-0.2593,-0.2574,-0.2571,-0.2573,-0.2525,-0.2523,-0.2472,-0.2496,-0.2414,-0.239,-0.2539,-0.2539,-0.2539,0,-0.2338,-0.2367,-0.2405,-0.2461,-0.2475,-0.2501,-0.2545,-0.2578,-0.2617,-0.2629,-0.2642,-0.2639,-0.2648,-0.2625,-0.2612,-0.2611,-0.2585,-0.2569,-0.2568,-0.2503,-0.2475,-0.2383,-0.2385,-0.2377,-0.254,-0.254,-0.254,0,-0.2295,-0.2359,-0.2383,-0.2403,-0.2472,-0.249,-0.2525,-0.2574,-0.2599,-0.2637,-0.265,-0.2663,-0.266,-0.2641,-0.2614,-0.2609,-0.259,-0.2577,-0.2511,-0.2508,-0.2419,-0.2406,-0.2402,-0.2563,-0.2563,-0.2563,-0.2563,0,-0.228,-0.2296,-0.2362,-0.2372,-0.2401,-0.2462,-0.2492,-0.2532,-0.2585,-0.2608,-0.2649,-0.2658,-0.2661,-0.2652,-0.2623,-0.2569,-0.2596,-0.2518,-0.2501,-0.2434,-0.2423,-0.2395,-0.2401,-0.2563,-0.2563,-0.2563,-0.2563,0,-0.2218,-0.2265,-0.2293,-0.2359,-0.2377,-0.2393,-0.2464,-0.2484,-0.255,-0.2581,-0.2592,-0.2649,-0.2642,-0.2639,-0.261,-0.2571,-0.2482,-0.2503,-0.2426,-0.2399,-0.232,-0.2331,-0.2255,-0.2189,-0.2427,-0.2426,-0.2425,0,-0.2188,-0.2194,-0.2258,-0.2265,-0.2288,-0.2327,-0.2348,-0.244,-0.2468,-0.2563,-0.2567,-0.2598,-0.2599,-0.2561,-0.2511,-0.246,-0.2428,-0.2339,-0.2315,-0.2306,-0.2306,-0.2283,-0.2232,-0.2221,-0.2219,-0.2217,-0.2215,0,-0.2113,-0.2134,-0.2151,-0.2173,-0.2193,-0.2225,-0.227,-0.2295,-0.2399,-0.2438,-0.2483,-0.2501,-0.2506,-0.2435,-0.2387,-0.2332,-0.2274,-0.2291,-0.2299,-0.216,-0.2116,-0.2047,-0.225,-0.2195,-0.2197,-0.2199,-0.22,-0.22,-0.2036,-0.2029,-0.2047,-0.2054,-0.2079,-0.2092,-0.208,-0.2153,-0.2188,-0.2239,-0.2337,-0.2361,-0.2353,-0.2283,-0.2233,-0.2129,-0.2142,-0.2058,-0.2078,-0.206,-0.1977,-0.2139,-0.2054,-0.2055,-0.2056,-0.2057,-0.2058,0,-0.1923,-0.1921,-0.1925,-0.1928,-0.1903,-0.1961,-0.1992,-0.1965,-0.1965,-0.2085,-0.2119,-0.2193,-0.2118,-0.212,-0.2039,-0.195,-0.188,-0.1893,-0.1854,-0.1815,-0.1971,-0.1944,-0.181,-0.181,-0.181,-0.181,-0.181,-0.181,-0.1862,-0.1816,-0.1819,-0.1736,-0.1736,-0.1664,-0.1652,-0.1647,-0.1701,-0.1767,-0.1883,-0.2018,-0.2032,-0.2089,-0.1966,-0.1868,-0.1796,-0.1726,-0.1738,-0.1884,-0.1902,-0.1919,-0.1895,-0.1753,-0.1753,-0.1513,-0.1512,-0.1511]},{"header":{"parameterUnit":"m.s-1","parameterCategory":2,"la1":30.2991,"la2":30.254,"lo1":-89.0895,"lo2":-89.0444,"dy":0.0017,"dx":0.0017,"nx":28,"ny":28,"refTime":"2024-10-09T09:00:00:Z","depth":"0","parameterNumber":3,"parameterNumberName":"V-component_of_CURRENTS"},"data":[0,0,0,0,0,0,0,0,0,0,0,0,0,0,0,0,0,0,0,0,0,0,0,0,0,0,0,0,0,0,0,0,0,0,0,0,0,0,0,0,0,0,0,0,0,0,0,0,0,0,0,0,0,0,0,0,0,0,-0.0413,-0.0412,0,-0.0344,-0.0343,-0.0342,-0.0296,-0.0295,-0.0295,-0.0295,-0.0205,-0.0203,-0.02,0,0,0,0,0,0,0,0,0,0,0,0,0,-0.0462,-0.0462,-0.0413,-0.0412,-0.0411,-0.0344,-0.0343,-0.0342,-0.0296,-0.0295,-0.0295,-0.0295,-0.0205,-0.0203,-0.02,0,0,0,0,0,0,0,0,0,0,0,0,0,-0.0421,-0.0462,-0.0413,-0.038,-0.0377,-0.0344,-0.0343,-0.0342,-0.0296,-0.0295,-0.0295,-0.0294,-0.0206,-0.0203,-0.02,-0.0189,0,0,-0.019,-0.0189,0,0,0,0,0,0,0,0,-0.0424,-0.042,-0.0386,-0.0382,-0.0378,-0.0328,-0.0327,-0.029,-0.0296,-0.0326,-0.0295,-0.0294,-0.0245,-0.0238,-0.0226,-0.0184,-0.018,-0.019,-0.0188,-0.0187,-0.0186,0,0,0,0,0,0,0,-0.0427,-0.0422,-0.0385,-0.0385,-0.0381,-0.0355,-0.0349,-0.032,-0.0288,-0.0323,-0.032,-0.0313,-0.0242,-0.0229,-0.0223,-0.0179,-0.019,-0.0187,-0.0185,-0.0184,-0.0112,-0.0112,0,0,0,0,0,0,-0.0439,-0.0425,-0.0387,-0.0383,-0.0401,-0.0355,-0.0348,-0.0344,-0.0288,-0.028,-0.0314,-0.0311,-0.0235,-0.0227,-0.022,-0.0202,-0.0187,-0.0184,-0.0182,-0.0112,-0.0112,-0.0112,0,0,0,0,0,0,-0.044,-0.0436,-0.039,-0.0402,-0.0395,-0.0355,-0.0351,-0.0343,-0.033,-0.0281,-0.0272,-0.0308,-0.0234,-0.0224,-0.0195,-0.0198,-0.0182,-0.0179,-0.0112,-0.0112,-0.0112,-0.0166,0,0,0,0,0,0,-0.0442,-0.0437,-0.0441,-0.0404,-0.0395,-0.0377,-0.0351,-0.0342,-0.0327,-0.0323,-0.0274,-0.0265,-0.0233,-0.02,-0.0192,-0.0193,-0.0177,-0.0112,-0.0112,-0.0112,-0.0164,-0.0168,-0.0171,0,0,0,0,0,-0.0444,-0.0453,-0.0442,-0.0437,-0.04,-0.0377,-0.037,-0.0339,-0.0327,-0.0325,-0.029,-0.0266,-0.0194,-0.0198,-0.0188,-0.0188,-0.0112,-0.0112,-0.0112,-0.0163,-0.0167,-0.0171,0,0,0,0,0,0,-0.0475,-0.0448,-0.0435,-0.0434,-0.041,-0.037,-0.0366,-0.0345,-0.0316,-0.0313,-0.0266,-0.0255,-0.0231,-0.0202,-0.0207,-0.0167,-0.0149,-0.0147,-0.0191,-0.0195,-0.0198,-0.021,-0.0174,0,0,0,0,0,-0.0485,-0.0485,-0.0451,-0.0452,-0.0442,-0.0406,-0.0393,-0.0373,-0.0342,-0.0328,-0.0293,-0.0255,-0.0224,-0.0204,-0.0173,-0.0152,-0.012,-0.0145,-0.0149,-0.0152,-0.0154,-0.011,-0.011,-0.0112,-0.0112,-0.0112,0,0,-0.0497,-0.0482,-0.0482,-0.0458,-0.0438,-0.0432,-0.0397,-0.0384,-0.0376,-0.0324,-0.0304,-0.0268,-0.0221,-0.0197,-0.0183,-0.0173,-0.0134,-0.0152,-0.0155,-0.0156,-0.011,-0.011,-0.0109,-0.0112,-0.0112,-0.0112,0,0,-0.0526,-0.0509,-0.052,-0.0504,-0.048,-0.0456,-0.0455,-0.0418,-0.0398,-0.0374,-0.0335,-0.03,-0.0254,-0.0218,-0.0194,-0.0198,-0.0156,-0.0189,-0.0212,-0.0169,-0.0168,-0.0167,-0.0129,-0.0124,-0.0188,-0.0188,-0.0188,0,-0.0543,-0.0551,-0.0519,-0.0525,-0.0518,-0.0471,-0.048,-0.0452,-0.041,-0.0393,-0.0377,-0.03,-0.0263,-0.0225,-0.0225,-0.0206,-0.0176,-0.0202,-0.0174,-0.0172,-0.0171,-0.0131,-0.0125,-0.019,-0.019,-0.019,-0.0189,0,-0.0579,-0.0585,-0.059,-0.0583,-0.0569,-0.0569,-0.0528,-0.051,-0.048,-0.0446,-0.0404,-0.0347,-0.03,-0.0282,-0.0254,-0.0222,-0.0204,-0.0187,-0.0167,-0.0174,-0.0131,-0.0124,-0.0194,-0.0193,-0.0192,-0.0192,0,0,-0.0619,-0.0619,-0.062,-0.063,-0.06,-0.0595,-0.0578,-0.0548,-0.0536,-0.0484,-0.046,-0.0399,-0.036,-0.0331,-0.0285,-0.0245,-0.0208,-0.0216,-0.0213,-0.0183,-0.0114,-0.0072,-0.006,-0.0186,-0.0185,-0.0184,-0.009,0,-0.0658,-0.0692,-0.0672,-0.0696,-0.071,-0.0663,-0.0652,-0.0615,-0.0571,-0.0534,-0.0461,-0.0422,-0.038,-0.0356,-0.031,-0.023,-0.0191,-0.0235,-0.0106,-0.0103,-0.0069,-0.0051,-0.0028,0.006,-0.0083,-0.0082,-0.0081,0,-0.07,-0.0717,-0.0754,-0.0759,-0.0758,-0.076,-0.073,-0.0713,-0.0642,-0.0606,-0.0545,-0.0483,-0.0408,-0.0378,-0.0245,-0.0274,-0.0205,-0.0144,-0.0138,-0.0075,-0.0047,0.0046,0.0079,0.0208,-0.007,-0.007,-0.0071,0,-0.075,-0.0772,-0.0807,-0.0809,-0.0803,-0.0805,-0.0793,-0.0737,-0.0723,-0.0648,-0.0623,-0.0522,-0.0468,-0.0365,-0.023,-0.0238,-0.0084,-0.0077,0.0026,0.0029,0.0087,0.0094,0.0256,0.0005,0.0004,0.0004,0.0004,0,-0.0802,-0.0827,-0.0836,-0.0857,-0.0891,-0.086,-0.0872,-0.0839,-0.0789,-0.0769,-0.0666,-0.0622,-0.0463,-0.035,-0.0239,-0.0074,-0.0086,0.0029,0.0061,0.0069,0.0074,0.0219,0.0267,0.0008,0.0007,0.0006,0.0006,0,-0.0853,-0.0859,-0.0903,-0.0914,-0.092,-0.0943,-0.0938,-0.0939,-0.0879,-0.0848,-0.0826,-0.069,-0.0532,-0.0366,-0.0184,-0.0081,0.0151,0.0121,0.0121,0.0151,0.0361,0.0405,0.0594,0.0659,0.025,0.0252,0.0253,0,-0.0883,-0.0913,-0.0955,-0.0986,-0.0996,-0.1021,-0.1035,-0.0993,-0.0988,-0.0887,-0.0875,-0.0714,-0.059,-0.0296,-0.008,0.0142,0.023,0.028,0.027,0.0389,0.0461,0.0489,0.0531,0.0326,0.0328,0.0329,0.0331,0,-0.0938,-0.0953,-0.099,-0.1058,-0.1091,-0.1126,-0.1138,-0.1149,-0.1085,-0.1035,-0.0937,-0.0825,-0.0519,-0.0244,0.0055,0.0185,0.038,0.0318,0.0448,0.0544,0.0579,0.0651,0.0243,0.0344,0.0343,0.0342,0.0341,0.0341,-0.097,-0.1014,-0.1065,-0.1126,-0.117,-0.1215,-0.1241,-0.1232,-0.1212,-0.1118,-0.1,-0.0803,-0.039,0.0045,0.0199,0.0541,0.0509,0.0635,0.0681,0.07,0.0763,0.0383,0.0514,0.0514,0.0513,0.0513,0.0513,0,-0.1009,-0.1059,-0.1127,-0.1199,-0.1259,-0.1261,-0.1295,-0.1298,-0.1273,-0.1147,-0.1021,-0.0566,-0.0159,0.022,0.071,0.0892,0.0919,0.0983,0.1031,0.1057,0.0737,0.0739,0.0916,0.0916,0.0916,0.0916,0.0916,0.0916,-0.1031,-0.1105,-0.1145,-0.1252,-0.1302,-0.1355,-0.1372,-0.1356,-0.128,-0.107,-0.0816,-0.0614,-0.0026,0.0768,0.121,0.1245,0.1378,0.1374,0.1447,0.1228,0.1199,0.1171,0.1187,0.1455,0.1455,0.1747,0.175,0.1753]}],[{"header":{"parameterUnit":"m.s-1","parameterCategory":2,"la1":30.2991,"la2":30.254,"lo1":-89.0895,"lo2":-89.0444,"dy":0.0017,"dx":0.0017,"nx":28,"ny":28,"refTime":"2024-10-09T09:00:00:Z","depth":"2","parameterNumber":2,"parameterNumberName":"U-component_of_CURRENTS"},"data":[0,0,0,0,0,0,0,0,0,0,0,0,0,0,0,0,0,0,0,0,0,0,0,0,0,0,0,0,0,0,0,0,0,0,0,0,0,0,0,0,0,0,0,0,0,0,0,0,0,0,0,0,0,0,0,0,0,0,-0.2277,-0.2277,0,-0.2287,-0.2287,-0.2287,-0.2256,-0.2255,-0.2254,-0.2253,-0.2221,-0.2221,-0.2221,0,0,0,0,0,0,0,0,0,0,0,0,0,-0.2231,-0.2231,-0.2277,-0.2277,-0.2277,-0.2287,-0.2287,-0.2287,-0.2256,-0.2255,-0.2254,-0.2253,-0.2221,-0.2221,-0.2221,0,0,0,0,0,0,0,0,0,0,0,0,0,-0.2245,-0.2232,-0.2277,-0.2264,-0.2263,-0.2287,-0.2287,-0.2287,-0.2256,-0.2255,-0.2254,-0.2252,-0.2221,-0.2221,-0.2221,-0.2243,0,0,-0.222,-0.222,0,0,0,0,0,0,0,0,-0.2244,-0.2246,-0.2266,-0.2265,-0.2264,-0.2271,-0.2259,-0.2271,-0.2256,-0.2257,-0.2253,-0.2252,-0.2236,-0.2234,-0.2237,-0.2242,-0.2241,-0.222,-0.222,-0.222,-0.222,0,0,0,0,0,0,0,-0.2243,-0.2246,-0.2279,-0.2266,-0.2265,-0.2259,-0.2259,-0.2261,-0.225,-0.2257,-0.2255,-0.2259,-0.2234,-0.2237,-0.2236,-0.224,-0.222,-0.222,-0.222,-0.222,-0.2254,-0.2255,0,0,0,0,0,0,-0.2247,-0.2245,-0.2279,-0.2279,-0.2253,-0.2261,-0.2261,-0.2268,-0.2251,-0.2249,-0.226,-0.2258,-0.2238,-0.2236,-0.2234,-0.2256,-0.222,-0.222,-0.222,-0.2253,-0.2254,-0.2255,0,0,0,0,0,0,-0.2246,-0.225,-0.2278,-0.2264,-0.2267,-0.2263,-0.2271,-0.2269,-0.2269,-0.2255,-0.2251,-0.2262,-0.2237,-0.2235,-0.2238,-0.2254,-0.222,-0.2219,-0.2252,-0.2253,-0.2255,-0.2302,0,0,0,0,0,0,-0.2245,-0.225,-0.2254,-0.2264,-0.2268,-0.2296,-0.2272,-0.227,-0.2275,-0.2271,-0.2255,-0.2251,-0.2236,-0.2239,-0.2238,-0.2253,-0.2219,-0.225,-0.2252,-0.2254,-0.2299,-0.2305,-0.231,0,0,0,0,0,-0.2243,-0.2256,-0.2254,-0.2258,-0.2274,-0.2297,-0.2299,-0.229,-0.2276,-0.2284,-0.2271,-0.2252,-0.225,-0.224,-0.2239,-0.2254,-0.225,-0.2252,-0.2254,-0.2296,-0.2303,-0.2309,0,0,0,0,0,0,-0.2237,-0.2255,-0.2252,-0.2269,-0.2283,-0.2292,-0.2298,-0.2295,-0.2293,-0.2285,-0.2266,-0.2262,-0.2272,-0.226,-0.2249,-0.227,-0.2247,-0.2249,-0.2279,-0.2286,-0.2291,-0.2292,-0.2219,0,0,0,0,0,-0.224,-0.225,-0.227,-0.228,-0.229,-0.2295,-0.2301,-0.2301,-0.2302,-0.2299,-0.229,-0.2281,-0.2284,-0.228,-0.228,-0.2293,-0.2278,-0.2302,-0.2308,-0.2312,-0.2313,-0.2307,-0.2312,-0.2263,-0.2263,-0.2263,0,0,-0.2239,-0.225,-0.2254,-0.2279,-0.2286,-0.2309,-0.2295,-0.2311,-0.2326,-0.2298,-0.2308,-0.2301,-0.2292,-0.2306,-0.2309,-0.2295,-0.2321,-0.2315,-0.2319,-0.2317,-0.231,-0.2314,-0.2318,-0.2264,-0.2264,-0.2264,0,0,-0.2247,-0.2255,-0.2268,-0.2287,-0.2308,-0.2317,-0.2325,-0.2341,-0.2342,-0.2359,-0.2342,-0.2346,-0.2347,-0.2345,-0.2344,-0.238,-0.2351,-0.238,-0.2404,-0.2399,-0.2402,-0.2405,-0.2399,-0.2401,-0.2379,-0.2379,-0.238,0,-0.2243,-0.2263,-0.2276,-0.23,-0.2315,-0.2324,-0.2347,-0.2361,-0.2373,-0.2378,-0.2366,-0.2375,-0.2367,-0.2384,-0.2395,-0.2392,-0.2381,-0.238,-0.2405,-0.2407,-0.241,-0.2402,-0.2404,-0.2382,-0.2382,-0.2381,-0.2381,0,-0.2264,-0.2283,-0.2295,-0.2326,-0.2348,-0.2368,-0.2395,-0.2411,-0.2413,-0.2422,-0.2438,-0.2431,-0.2431,-0.2437,-0.2427,-0.2444,-0.2429,-0.2414,-0.2387,-0.2417,-0.2408,-0.2409,-0.2386,-0.2385,-0.2384,-0.2383,0,0,-0.2242,-0.2297,-0.2299,-0.2316,-0.2361,-0.2379,-0.2416,-0.2447,-0.2462,-0.2475,-0.249,-0.2502,-0.2491,-0.2489,-0.2479,-0.2478,-0.2489,-0.2454,-0.2452,-0.2444,-0.2474,-0.2422,-0.2418,-0.2474,-0.2474,-0.2475,-0.2463,0,-0.2248,-0.229,-0.2321,-0.2358,-0.2381,-0.2413,-0.2446,-0.2476,-0.2494,-0.2513,-0.2516,-0.2525,-0.2514,-0.2511,-0.2512,-0.2494,-0.2492,-0.2493,-0.2448,-0.2446,-0.2394,-0.2418,-0.2213,-0.2181,-0.2463,-0.2464,-0.2464,0,-0.2251,-0.2278,-0.2316,-0.2369,-0.2383,-0.2409,-0.2453,-0.2486,-0.2526,-0.2539,-0.2554,-0.2553,-0.2564,-0.2543,-0.2532,-0.2531,-0.2508,-0.2492,-0.2491,-0.2425,-0.2396,-0.2195,-0.2172,-0.2465,-0.2465,-0.2464,-0.2464,0,-0.221,-0.2272,-0.2295,-0.2315,-0.2381,-0.24,-0.2434,-0.2484,-0.2509,-0.2549,-0.2563,-0.2577,-0.2576,-0.256,-0.2535,-0.2531,-0.2513,-0.2501,-0.2435,-0.2432,-0.2239,-0.2217,-0.2489,-0.2489,-0.2489,-0.2489,-0.2489,0,-0.2195,-0.2212,-0.2276,-0.2286,-0.2315,-0.2374,-0.2405,-0.2445,-0.2498,-0.2521,-0.2563,-0.2572,-0.2578,-0.257,-0.2545,-0.2492,-0.2519,-0.2442,-0.2425,-0.2251,-0.2232,-0.246,-0.2457,-0.2489,-0.2489,-0.2489,-0.2489,0,-0.2137,-0.2183,-0.221,-0.2275,-0.2293,-0.2309,-0.2379,-0.2399,-0.2466,-0.2496,-0.2508,-0.2565,-0.2559,-0.2558,-0.2532,-0.2494,-0.2455,-0.2428,-0.2228,-0.2187,-0.2377,-0.2376,-0.2356,-0.2354,-0.2352,-0.2351,-0.235,0,-0.2109,-0.2115,-0.2177,-0.2185,-0.2208,-0.2247,-0.2269,-0.2358,-0.2385,-0.2478,-0.2481,-0.2514,-0.2511,-0.2475,-0.2406,-0.2351,-0.2413,-0.2135,-0.2095,-0.2378,-0.2363,-0.2365,-0.2367,-0.1858,-0.1853,-0.1849,-0.1846,0,-0.2038,-0.2059,-0.2076,-0.2097,-0.2118,-0.2147,-0.2192,-0.2215,-0.2316,-0.2352,-0.2394,-0.2408,-0.2394,-0.2247,-0.2193,-0.213,-0.2131,-0.2051,-0.2377,-0.1936,-0.191,-0.1896,-0.1913,-0.1809,-0.1812,-0.1815,-0.1817,-0.1819,-0.1965,-0.1958,-0.1976,-0.1983,-0.2008,-0.2018,-0.2005,-0.2068,-0.2097,-0.212,-0.2222,-0.2177,-0.2149,-0.1971,-0.1868,-0.1783,-0.1939,-0.1827,-0.1839,-0.1855,-0.1812,-0.1786,-0.1652,-0.1655,-0.1657,-0.1659,-0.1661,0,-0.1855,-0.1854,-0.1858,-0.1861,-0.1834,-0.1893,-0.1919,-0.1875,-0.1862,-0.1917,-0.1926,-0.1727,-0.1638,-0.1627,-0.1447,-0.1417,-0.1385,-0.1344,-0.1289,-0.1326,-0.136,-0.1291,-0.0993,-0.0991,-0.0989,-0.0988,0,0,-0.1796,-0.175,-0.1751,-0.1668,-0.1671,-0.1595,-0.158,-0.1544,-0.1543,-0.1482,-0.1461,-0.1565,-0.1597,-0.1299,-0.1217,-0.1083,-0.1194,-0.1023,-0.1557,-0.1531,-0.1562,-0.1635,-0.157,0,0,0,0,0]},{"header":{"parameterUnit":"m.s-1","parameterCategory":2,"la1":30.2991,"la2":30.254,"lo1":-89.0895,"lo2":-89.0444,"dy":0.0017,"dx":0.0017,"nx":28,"ny":28,"refTime":"2024-10-09T09:00:00:Z","depth":"2","parameterNumber":3,"parameterNumberName":"V-component_of_CURRENTS"},"data":[0,0,0,0,0,0,0,0,0,0,0,0,0,0,0,0,0,0,0,0,0,0,0,0,0,0,0,0,0,0,0,0,0,0,0,0,0,0,0,0,0,0,0,0,0,0,0,0,0,0,0,0,0,0,0,0,0,0,-0.0311,-0.031,0,-0.0245,-0.0244,-0.0243,-0.02,-0.02,-0.02,-0.02,-0.0114,-0.0112,-0.011,0,0,0,0,0,0,0,0,0,0,0,0,0,-0.0357,-0.0357,-0.0311,-0.031,-0.0309,-0.0245,-0.0244,-0.0243,-0.02,-0.02,-0.02,-0.0199,-0.0114,-0.0112,-0.0109,0,0,0,0,0,0,0,0,0,0,0,0,0,-0.0318,-0.0357,-0.0311,-0.0281,-0.0277,-0.0245,-0.0244,-0.0243,-0.02,-0.02,-0.02,-0.0199,-0.0115,-0.0112,-0.0109,-0.0096,0,0,-0.0099,-0.0098,0,0,0,0,0,0,0,0,-0.0321,-0.0317,-0.0286,-0.0283,-0.0279,-0.0231,-0.0229,-0.0193,-0.02,-0.0229,-0.02,-0.0199,-0.0152,-0.0146,-0.0133,-0.0092,-0.0089,-0.0099,-0.0097,-0.0096,-0.0095,0,0,0,0,0,0,0,-0.0323,-0.0319,-0.0284,-0.0285,-0.0281,-0.0256,-0.025,-0.0222,-0.0192,-0.0226,-0.0223,-0.0217,-0.015,-0.0136,-0.0131,-0.0087,-0.0099,-0.0096,-0.0095,-0.0093,-0.0023,-0.0023,0,0,0,0,0,0,-0.0335,-0.0322,-0.0286,-0.0282,-0.03,-0.0256,-0.0249,-0.0246,-0.0193,-0.0185,-0.0217,-0.0215,-0.0142,-0.0135,-0.0128,-0.011,-0.0096,-0.0093,-0.0091,-0.0023,-0.0023,-0.0023,0,0,0,0,0,0,-0.0337,-0.0333,-0.0289,-0.0301,-0.0294,-0.0256,-0.0252,-0.0245,-0.0233,-0.0186,-0.0178,-0.0213,-0.0141,-0.0132,-0.0104,-0.0107,-0.0092,-0.0089,-0.0023,-0.0023,-0.0023,-0.0075,0,0,0,0,0,0,-0.0338,-0.0334,-0.0338,-0.0302,-0.0293,-0.0277,-0.0252,-0.0244,-0.023,-0.0227,-0.018,-0.0171,-0.014,-0.0109,-0.0101,-0.0102,-0.0086,-0.0023,-0.0023,-0.0023,-0.0073,-0.0077,-0.008,0,0,0,0,0,-0.034,-0.0349,-0.0339,-0.0334,-0.03,-0.0277,-0.0271,-0.0241,-0.0231,-0.0229,-0.0196,-0.0173,-0.0103,-0.0107,-0.0097,-0.0097,-0.0023,-0.0023,-0.0023,-0.0072,-0.0076,-0.008,0,0,0,0,0,0,-0.0371,-0.0344,-0.0332,-0.0332,-0.031,-0.027,-0.0267,-0.0247,-0.022,-0.0218,-0.0173,-0.0162,-0.0139,-0.0111,-0.0116,-0.0077,-0.0059,-0.0058,-0.01,-0.0103,-0.0106,-0.0118,-0.0084,0,0,0,0,0,-0.038,-0.0381,-0.0348,-0.0349,-0.0341,-0.0306,-0.0294,-0.0275,-0.0245,-0.0232,-0.0198,-0.0162,-0.0131,-0.0113,-0.0083,-0.0061,-0.003,-0.0055,-0.0058,-0.0061,-0.0064,-0.002,-0.0019,-0.0023,-0.0023,-0.0023,0,0,-0.0392,-0.0378,-0.0378,-0.0356,-0.0336,-0.0331,-0.0298,-0.0286,-0.0278,-0.0228,-0.0209,-0.0174,-0.0129,-0.0105,-0.0092,-0.0082,-0.0044,-0.0061,-0.0064,-0.0065,-0.002,-0.0019,-0.0019,-0.0023,-0.0023,-0.0023,0,0,-0.0421,-0.0405,-0.0416,-0.0401,-0.0378,-0.0354,-0.0354,-0.0318,-0.0299,-0.0277,-0.0239,-0.0206,-0.0161,-0.0125,-0.0102,-0.0105,-0.0065,-0.0097,-0.0118,-0.0076,-0.0076,-0.0075,-0.0037,-0.0033,-0.0095,-0.0095,-0.0096,0,-0.0438,-0.0446,-0.0415,-0.0421,-0.0414,-0.0369,-0.0378,-0.0351,-0.031,-0.0294,-0.028,-0.0205,-0.0169,-0.0131,-0.0132,-0.0112,-0.0084,-0.0109,-0.0081,-0.0079,-0.0077,-0.0039,-0.0034,-0.0098,-0.0098,-0.0097,-0.0097,0,-0.0473,-0.0478,-0.0483,-0.0476,-0.0462,-0.0463,-0.0423,-0.0406,-0.0378,-0.0345,-0.0304,-0.0249,-0.0204,-0.0186,-0.016,-0.0128,-0.0111,-0.0094,-0.0074,-0.008,-0.004,-0.0033,-0.0102,-0.0101,-0.01,-0.0099,0,0,-0.0512,-0.0511,-0.0512,-0.0522,-0.0493,-0.0488,-0.0471,-0.0442,-0.043,-0.038,-0.0357,-0.0297,-0.0261,-0.0232,-0.0188,-0.0149,-0.0112,-0.0121,-0.0118,-0.009,-0.0021,0.0017,0.0028,-0.0091,-0.009,-0.0089,0.0001,0,-0.055,-0.0582,-0.0563,-0.0585,-0.0598,-0.0553,-0.0541,-0.0506,-0.0463,-0.0427,-0.0356,-0.0319,-0.0279,-0.0257,-0.0211,-0.0133,-0.0096,-0.0138,-0.0014,-0.001,0.002,0.0037,0.0022,0.0104,0.0008,0.0009,0.001,0,-0.0591,-0.0607,-0.0642,-0.0645,-0.0645,-0.0647,-0.0618,-0.0601,-0.0532,-0.0498,-0.0438,-0.0379,-0.0305,-0.0277,-0.0147,-0.0176,-0.0109,-0.0049,-0.0044,0.0014,0.0041,0.0096,0.012,0.0022,0.0021,0.002,0.002,0,-0.0641,-0.0661,-0.0694,-0.0696,-0.0688,-0.0691,-0.0679,-0.0626,-0.0611,-0.0539,-0.0515,-0.0416,-0.0366,-0.0264,-0.0135,-0.0142,0.0008,0.0016,0.0113,0.0116,0.0141,0.0145,0.0096,0.0096,0.0096,0.0095,0.0095,0,-0.0691,-0.0716,-0.0724,-0.0744,-0.0777,-0.0746,-0.0759,-0.0727,-0.0678,-0.0659,-0.0559,-0.0516,-0.0361,-0.0252,-0.0143,0.0016,0.0006,0.0116,0.0146,0.0122,0.0124,0.0081,0.0078,0.0099,0.0098,0.0097,0.0097,0,-0.0743,-0.0747,-0.079,-0.0801,-0.0806,-0.083,-0.0825,-0.0826,-0.0769,-0.0738,-0.0717,-0.0585,-0.0432,-0.027,-0.0093,0.0007,0.0151,0.0203,0.0165,0.019,0.023,0.0224,0.0322,0.0325,0.0327,0.0328,0.0329,0,-0.0772,-0.0801,-0.0842,-0.0873,-0.0883,-0.0908,-0.0922,-0.0881,-0.0876,-0.0777,-0.0765,-0.0611,-0.049,-0.0205,0.0002,0.0216,0.0202,0.0314,0.0301,0.0236,0.0256,0.0246,0.0237,0.0311,0.0312,0.0313,0.0314,0,-0.0827,-0.0842,-0.0878,-0.0945,-0.0978,-0.1011,-0.1023,-0.1034,-0.097,-0.0921,-0.0827,-0.0718,-0.0426,-0.0176,0.011,0.023,0.0284,0.0339,0.0294,0.0255,0.0233,0.0249,0.024,0.0322,0.0321,0.032,0.032,0.032,-0.086,-0.0903,-0.0953,-0.1014,-0.1057,-0.1099,-0.1124,-0.1109,-0.1088,-0.0982,-0.0878,-0.0676,-0.0427,-0.0006,0.0188,0.0374,0.0368,0.0414,0.0408,0.0402,0.0383,0.0365,0.0475,0.0475,0.0476,0.0476,0.0476,0,-0.0897,-0.0949,-0.1015,-0.1085,-0.114,-0.1147,-0.1177,-0.1163,-0.113,-0.0995,-0.0864,-0.0564,-0.0269,-0.0014,0.0291,0.0464,0.0441,0.0485,0.042,0.0413,0.0406,0.0384,0.0479,0.0479,0.0479,0.048,0,0,-0.0919,-0.099,-0.1028,-0.1131,-0.1183,-0.1228,-0.1243,-0.1194,-0.1102,-0.0957,-0.0791,-0.0564,-0.0253,-0.004,0.0183,0.0337,0.0321,0.0349,0.0332,0.0221,0.0212,0.0357,0.0315,0,0,0,0,0]}],[{"header":{"parameterUnit":"m.s-1","parameterCategory":2,"la1":30.2991,"la2":30.254,"lo1":-89.0895,"lo2":-89.0444,"dy":0.0017,"dx":0.0017,"nx":28,"ny":28,"refTime":"2024-10-09T09:00:00:Z","depth":"4","parameterNumber":2,"parameterNumberName":"U-component_of_CURRENTS"},"data":[0,0,0,0,0,0,0,0,0,0,0,0,0,0,0,0,0,0,0,0,0,0,0,0,0,0,0,0,0,0,0,0,0,0,0,0,0,0,0,0,0,0,0,0,0,0,0,0,0,0,0,0,0,0,0,0,0,0,-0.1584,-0.1585,0,-0.1638,-0.1639,-0.1639,-0.167,-0.167,-0.167,-0.1671,-0.1717,-0.1718,-0.1719,0,0,0,0,0,0,0,0,0,0,0,0,0,-0.151,-0.1511,-0.1584,-0.1585,-0.1586,-0.1638,-0.1639,-0.1639,-0.167,-0.167,-0.167,-0.1671,-0.1717,-0.1718,-0.1719,0,0,0,0,0,0,0,0,0,0,0,0,0,-0.1549,-0.1511,-0.1584,-0.1608,-0.1611,-0.1638,-0.1639,-0.1639,-0.167,-0.167,-0.167,-0.1671,-0.1716,-0.1718,-0.172,-0.1722,0,0,-0.1724,-0.1725,0,0,0,0,0,0,0,0,-0.1547,-0.1552,-0.1604,-0.1607,-0.161,-0.1649,-0.163,-0.1667,-0.167,-0.1646,-0.1671,-0.1671,-0.1694,-0.1698,-0.1705,-0.1724,-0.1726,-0.1724,-0.1725,-0.1726,-0.1726,0,0,0,0,0,0,0,-0.1544,-0.155,-0.1604,-0.1605,-0.1609,-0.1617,-0.1623,-0.1637,-0.1666,-0.1648,-0.1651,-0.1659,-0.1696,-0.1704,-0.1707,-0.1727,-0.1724,-0.1726,-0.1727,-0.1727,-0.1814,-0.1816,0,0,0,0,0,0,-0.154,-0.1547,-0.1603,-0.1606,-0.158,-0.1618,-0.1625,-0.1635,-0.1667,-0.1672,-0.1659,-0.166,-0.1701,-0.1705,-0.1708,-0.1776,-0.1726,-0.1727,-0.1728,-0.1813,-0.1815,-0.1816,0,0,0,0,0,0,-0.1538,-0.1544,-0.16,-0.1579,-0.1587,-0.1619,-0.163,-0.1636,-0.1669,-0.1675,-0.168,-0.169,-0.1701,-0.1706,-0.1745,-0.1775,-0.1728,-0.173,-0.1811,-0.1813,-0.1815,-0.187,0,0,0,0,0,0,-0.1536,-0.1543,-0.1562,-0.1578,-0.1588,-0.1634,-0.163,-0.1637,-0.1673,-0.1676,-0.1703,-0.1706,-0.1702,-0.1743,-0.1747,-0.1777,-0.1731,-0.181,-0.1812,-0.1815,-0.1867,-0.1874,-0.188,0,0,0,0,0,-0.1533,-0.1553,-0.1562,-0.157,-0.1608,-0.1635,-0.1641,-0.1664,-0.1674,-0.1695,-0.1714,-0.1706,-0.1762,-0.1745,-0.1749,-0.1781,-0.1808,-0.1811,-0.1815,-0.1864,-0.1873,-0.188,0,0,0,0,0,0,-0.1532,-0.1558,-0.1569,-0.1597,-0.1623,-0.1641,-0.1666,-0.168,-0.1712,-0.1723,-0.1725,-0.173,-0.1775,-0.1771,-0.1753,-0.1813,-0.1784,-0.1788,-0.182,-0.1828,-0.1835,-0.1829,-0.1732,0,0,0,0,0,-0.1539,-0.1561,-0.1586,-0.1611,-0.1627,-0.1652,-0.1671,-0.1688,-0.1712,-0.1728,-0.1747,-0.1767,-0.1787,-0.1803,-0.1818,-0.1853,-0.1835,-0.1875,-0.1882,-0.1887,-0.1886,-0.1885,-0.1891,-0.1826,-0.1826,-0.1826,0,0,-0.1546,-0.1564,-0.1578,-0.1613,-0.1636,-0.1665,-0.1665,-0.1703,-0.1734,-0.1727,-0.1783,-0.1795,-0.1801,-0.184,-0.186,-0.1844,-0.1898,-0.1891,-0.1896,-0.1891,-0.1889,-0.1895,-0.19,-0.1828,-0.1828,-0.1828,0,0,-0.1561,-0.1588,-0.1611,-0.1637,-0.1676,-0.1692,-0.171,-0.1747,-0.1773,-0.182,-0.1823,-0.1853,-0.189,-0.1898,-0.1904,-0.1958,-0.1934,-0.1969,-0.2001,-0.2,-0.2005,-0.2009,-0.1998,-0.2001,-0.1973,-0.1973,-0.1973,0,-0.1571,-0.1599,-0.1623,-0.1652,-0.1678,-0.1708,-0.174,-0.1771,-0.1818,-0.184,-0.1847,-0.1903,-0.1914,-0.1947,-0.1969,-0.1973,-0.1964,-0.1969,-0.2008,-0.2011,-0.2014,-0.2002,-0.2004,-0.1976,-0.1976,-0.1975,-0.1975,0,-0.1593,-0.163,-0.1648,-0.1693,-0.1725,-0.176,-0.18,-0.1842,-0.1877,-0.19,-0.1954,-0.197,-0.1997,-0.2012,-0.201,-0.2044,-0.2028,-0.2015,-0.1984,-0.2024,-0.2009,-0.201,-0.198,-0.1979,-0.1978,-0.1978,0,0,-0.1574,-0.1649,-0.1658,-0.1688,-0.1751,-0.1775,-0.1836,-0.1886,-0.1922,-0.1972,-0.2011,-0.2054,-0.2062,-0.207,-0.2073,-0.208,-0.2101,-0.2064,-0.2063,-0.2047,-0.2095,-0.1958,-0.1946,-0.2096,-0.2097,-0.2097,-0.2077,0,-0.1586,-0.1641,-0.168,-0.1741,-0.1772,-0.1825,-0.1874,-0.1927,-0.1971,-0.2017,-0.2043,-0.2082,-0.2084,-0.2102,-0.2111,-0.2105,-0.2106,-0.2107,-0.2063,-0.2062,-0.193,-0.1943,-0.2099,-0.2077,-0.2077,-0.2078,-0.2078,0,-0.1585,-0.1625,-0.1685,-0.1762,-0.1782,-0.1828,-0.1904,-0.1953,-0.2021,-0.2055,-0.2097,-0.2115,-0.2147,-0.2136,-0.2142,-0.2144,-0.2126,-0.2114,-0.2112,-0.1962,-0.1926,-0.2028,-0.2079,-0.2079,-0.2079,-0.2079,-0.2079,0,-0.1539,-0.1625,-0.1673,-0.1701,-0.1793,-0.1837,-0.189,-0.1966,-0.2005,-0.2078,-0.2105,-0.2145,-0.2164,-0.2159,-0.2145,-0.2149,-0.2132,-0.2128,-0.1985,-0.1975,-0.2082,-0.2077,-0.2119,-0.2119,-0.212,-0.212,-0.212,0,-0.1514,-0.1555,-0.1661,-0.1684,-0.1744,-0.1821,-0.1885,-0.1944,-0.2019,-0.2049,-0.2119,-0.2129,-0.2172,-0.2168,-0.215,-0.2061,-0.2134,-0.1982,-0.1956,-0.2107,-0.2106,-0.2082,-0.2078,-0.2119,-0.2119,-0.2119,-0.2119,0,-0.1445,-0.1518,-0.1577,-0.1686,-0.1723,-0.1765,-0.1874,-0.1906,-0.1997,-0.2036,-0.2059,-0.2123,-0.2113,-0.2129,-0.2114,-0.2045,-0.199,-0.194,-0.2096,-0.2082,-0.1835,-0.1835,-0.1774,-0.1769,-0.1764,-0.1761,-0.1758,0,-0.1411,-0.1436,-0.1558,-0.159,-0.1644,-0.1722,-0.1765,-0.1878,-0.1904,-0.2004,-0.1998,-0.2037,-0.2058,-0.1923,-0.1961,-0.1905,-0.1882,-0.1841,-0.1839,-0.1816,-0.1799,-0.1805,-0.181,-0.1751,-0.175,-0.1749,-0.1747,0,-0.1334,-0.1393,-0.1439,-0.1506,-0.1564,-0.1617,-0.1688,-0.1696,-0.1805,-0.1908,-0.188,-0.1862,-0.1844,-0.1823,-0.1788,-0.1752,-0.1862,-0.1796,-0.1805,-0.1802,-0.1788,-0.1776,-0.1786,-0.1732,-0.1735,-0.1736,-0.1737,0,-0.1274,-0.1287,-0.1353,-0.1395,-0.1463,-0.1475,-0.1538,-0.1561,-0.1604,-0.1722,-0.1705,-0.175,-0.1821,-0.1741,-0.171,-0.1661,-0.1637,-0.1578,-0.1598,-0.1615,-0.1571,-0.1529,-0.1362,0,0,0,0,0,-0.12,-0.1196,-0.1231,-0.1271,-0.1332,-0.1366,-0.146,-0.1524,-0.1635,-0.1568,-0.1633,-0.1609,-0.1564,-0.1589,-0.1502,-0.1634,-0.1642,-0.1525,-0.1587,-0.1649,-0.1666,-0.1628,0,0,0,0,0,0,-0.1149,-0.1176,-0.1185,-0.1147,-0.1148,-0.1199,-0.1251,-0.1335,-0.1309,-0.1429,-0.1411,-0.1501,-0.148,-0.1583,-0.1464,-0.1471,-0.1473,-0.1564,-0.1559,-0.1639,-0.1655,-0.1669,-0.1636,0,0,0,0,0]},{"header":{"parameterUnit":"m.s-1","parameterCategory":2,"la1":30.2991,"la2":30.254,"lo1":-89.0895,"lo2":-89.0444,"dy":0.0017,"dx":0.0017,"nx":28,"ny":28,"refTime":"2024-10-09T09:00:00:Z","depth":"4","parameterNumber":3,"parameterNumberName":"V-component_of_CURRENTS"},"data":[0,0,0,0,0,0,0,0,0,0,0,0,0,0,0,0,0,0,0,0,0,0,0,0,0,0,0,0,0,0,0,0,0,0,0,0,0,0,0,0,0,0,0,0,0,0,0,0,0,0,0,0,0,0,0,0,0,0,-0.0141,-0.0141,0,-0.0102,-0.0101,-0.0101,-0.0075,-0.0074,-0.0074,-0.0074,-0.0013,-0.0012,-0.001,0,0,0,0,0,0,0,0,0,0,0,0,0,-0.016,-0.0159,-0.0141,-0.014,-0.014,-0.0102,-0.0101,-0.0101,-0.0075,-0.0074,-0.0074,-0.0074,-0.0014,-0.0012,-0.001,0,0,0,0,0,0,0,0,0,0,0,0,0,-0.0139,-0.0159,-0.0141,-0.0123,-0.0121,-0.0102,-0.0101,-0.0101,-0.0075,-0.0074,-0.0074,-0.0074,-0.0015,-0.0012,-0.001,-0.0,0,0,-0.0003,-0.0002,0,0,0,0,0,0,0,0,-0.014,-0.0138,-0.0126,-0.0124,-0.0122,-0.0093,-0.0086,-0.0066,-0.0075,-0.0092,-0.0074,-0.0074,-0.0039,-0.0034,-0.0027,0.0003,0.0005,-0.0003,-0.0002,-0.0001,-0.0,0,0,0,0,0,0,0,-0.0141,-0.0139,-0.0125,-0.0126,-0.0123,-0.0105,-0.0102,-0.0082,-0.0066,-0.009,-0.0088,-0.0085,-0.0037,-0.0029,-0.0025,0.0006,-0.0003,-0.0001,0.0,0.0001,0.0051,0.0051,0,0,0,0,0,0,-0.0149,-0.0141,-0.0126,-0.0124,-0.0131,-0.0105,-0.0102,-0.0102,-0.0066,-0.0061,-0.0085,-0.0084,-0.0033,-0.0028,-0.0023,-0.0012,-0.0001,0.0001,0.0003,0.0051,0.0051,0.0051,0,0,0,0,0,0,-0.015,-0.0149,-0.0128,-0.0132,-0.0128,-0.0106,-0.0106,-0.0102,-0.0097,-0.0063,-0.0057,-0.0085,-0.0033,-0.0026,-0.0008,-0.0009,0.0002,0.0004,0.0051,0.0051,0.0051,0.0013,0,0,0,0,0,0,-0.0151,-0.0149,-0.0155,-0.0132,-0.0128,-0.0122,-0.0106,-0.0101,-0.0095,-0.0093,-0.0061,-0.0055,-0.0032,-0.0011,-0.0006,-0.0006,0.0006,0.0051,0.0051,0.0051,0.0014,0.0011,0.0009,0,0,0,0,0,-0.0152,-0.016,-0.0155,-0.0154,-0.0136,-0.0123,-0.0119,-0.0102,-0.0095,-0.0096,-0.0073,-0.0056,-0.0007,-0.001,-0.0003,-0.0002,0.0051,0.0051,0.0051,0.0015,0.0012,0.0009,0,0,0,0,0,0,-0.0171,-0.0158,-0.0152,-0.0157,-0.0144,-0.0119,-0.0119,-0.0107,-0.009,-0.0089,-0.0057,-0.0049,-0.0034,-0.0013,-0.0016,0.0012,0.0025,0.0027,-0.0005,-0.0008,-0.001,-0.0019,0.0008,0,0,0,0,0,-0.0179,-0.0183,-0.0165,-0.0169,-0.0165,-0.0144,-0.0137,-0.0126,-0.0107,-0.01,-0.0076,-0.0051,-0.0028,-0.0015,0.0007,0.0022,0.0048,0.0027,0.0025,0.0023,0.002,0.0059,0.006,0.0051,0.0051,0.0051,0,0,-0.0188,-0.0182,-0.0184,-0.0174,-0.0163,-0.0162,-0.0139,-0.0135,-0.0132,-0.0096,-0.0086,-0.0061,-0.0027,-0.001,-0.0001,0.0007,0.0038,0.0023,0.002,0.0019,0.0059,0.006,0.0061,0.0051,0.0051,0.0051,0,0,-0.0209,-0.0203,-0.0214,-0.0206,-0.0195,-0.0181,-0.0182,-0.0161,-0.015,-0.0137,-0.0109,-0.0084,-0.0054,-0.0025,-0.0008,-0.001,0.0022,-0.0005,-0.0021,0.0016,0.0017,0.0018,0.0049,0.0053,-0.0003,-0.0003,-0.0003,0,-0.0221,-0.0232,-0.0215,-0.0222,-0.022,-0.0193,-0.0202,-0.0185,-0.016,-0.015,-0.0141,-0.0087,-0.006,-0.0029,-0.003,-0.0016,0.0007,-0.0014,0.0013,0.0014,0.0016,0.0047,0.0053,-0.0005,-0.0005,-0.0005,-0.0005,0,-0.0247,-0.0257,-0.0263,-0.0264,-0.0258,-0.0262,-0.0238,-0.0229,-0.0212,-0.019,-0.0161,-0.012,-0.0087,-0.0072,-0.0052,-0.0024,-0.0012,0.0002,0.0018,0.0015,0.0048,0.0054,-0.0008,-0.0007,-0.0007,-0.0006,0,0,-0.0271,-0.0281,-0.0284,-0.0296,-0.0282,-0.0283,-0.0274,-0.0258,-0.0253,-0.0218,-0.0203,-0.0157,-0.013,-0.0108,-0.0074,-0.0039,-0.0006,-0.0017,-0.0014,0.0009,0.0072,0.0072,0.0079,0.0013,0.0014,0.0014,0.0089,0,-0.0298,-0.0329,-0.0321,-0.0346,-0.0359,-0.0333,-0.0329,-0.0308,-0.0281,-0.0257,-0.0202,-0.0177,-0.0144,-0.0129,-0.0089,-0.0024,0.0009,-0.0027,0.0075,0.0078,0.0076,0.0086,0.0017,0.0093,0.0095,0.0096,0.0097,0,-0.0325,-0.0344,-0.0378,-0.0394,-0.0396,-0.0405,-0.0395,-0.0387,-0.0339,-0.0317,-0.0272,-0.0226,-0.0166,-0.0143,-0.0033,-0.0058,-0.0001,0.0049,0.0053,0.0071,0.009,0.01,0.0108,0.0107,0.0106,0.0106,0.0105,0,-0.0354,-0.0382,-0.0416,-0.0421,-0.043,-0.0441,-0.0441,-0.0409,-0.0404,-0.0353,-0.0338,-0.0257,-0.0218,-0.0131,-0.0024,-0.0029,0.0096,0.0106,0.016,0.016,0.0155,0.0153,0.0175,0.0175,0.0175,0.0175,0.0174,0,-0.0383,-0.041,-0.0438,-0.0457,-0.0496,-0.0484,-0.0507,-0.0489,-0.0461,-0.0451,-0.0375,-0.0342,-0.0215,-0.0125,-0.0031,0.0086,0.0094,0.0159,0.0181,0.0136,0.0131,0.0159,0.0156,0.0178,0.0177,0.0176,0.0176,0,-0.0406,-0.0424,-0.0469,-0.05,-0.0514,-0.0542,-0.0564,-0.0571,-0.0538,-0.0519,-0.0505,-0.0403,-0.028,-0.0149,0.0001,0.0071,0.0186,0.0222,0.0162,0.018,0.0226,0.022,0.029,0.029,0.0291,0.0291,0.0292,0,-0.0418,-0.0445,-0.0508,-0.0544,-0.0565,-0.0604,-0.0627,-0.0614,-0.0614,-0.0551,-0.0539,-0.0425,-0.0341,-0.0124,0.0007,0.0191,0.0211,0.0262,0.0245,0.0224,0.0239,0.0232,0.0226,0.0293,0.0293,0.0293,0.0293,0,-0.044,-0.0469,-0.0507,-0.0584,-0.063,-0.0672,-0.07,-0.0706,-0.0673,-0.0647,-0.0552,-0.043,-0.0292,-0.0123,0.002,0.0148,0.0228,0.0268,0.0268,0.0253,0.0228,0.0241,0.0234,0.0295,0.0295,0.0294,0.0294,0,-0.0454,-0.0491,-0.0549,-0.0611,-0.0674,-0.0715,-0.0731,-0.0716,-0.0706,-0.0627,-0.0597,-0.0435,-0.034,-0.0145,-0.0012,0.0117,0.0144,0.0172,0.0177,0.0177,0.0121,0.0072,0.0112,0,0,0,0,0,-0.046,-0.0503,-0.0569,-0.0637,-0.07,-0.0731,-0.0763,-0.0764,-0.0735,-0.0672,-0.063,-0.0493,-0.0276,-0.0183,-0.0053,-0.0015,0.0153,0.0138,0.0185,0.0306,0.0303,0.0257,0,0,0,0,0,0,-0.0466,-0.0529,-0.0566,-0.0639,-0.0687,-0.0746,-0.0768,-0.0753,-0.071,-0.0663,-0.0546,-0.047,-0.0262,-0.0344,-0.0051,-0.0012,0.0032,0.0245,0.0247,0.0307,0.0305,0.0303,0.0255,0,0,0,0,0]}]]